STARLINK-1730, 46563

Orbit data source: Space-Track

STARLINK-1730, 46563 is a payload satellite owned by SpaceX/Seattle (US) in LEO that was launched on Tue, 06 Oct 2020 UTC via an FALCON 9 launch vehicle from the Air Force Eastern Test Range (AFETR). Payload-class satellites include a variety of spacecraft equipped with specific instruments for various scientific and technological missions. These include communications satellites like Starlink; space stations such as the ISS; scientific satellites like the Hubble; Earth observation satellites from companies like Planet Labs, Umbra, and HawkEye 360; GPS; miniature CubeSats for education and research; and military/defense satellites.

Loading next visibility...
Identifier
46563, 2020-070AH
Orbit
LEO
Country
Flag of USUS
Related business
Manufacturer
SpaceX/Seattle
Mission
Partially operational Commercial Communications
Bus & Motor
STARLINK, Unknown motor
Mass
260 kg wet, ~248 kg dry
Launch date (UTC)
2020-10-06 (5 years ago)
Launch vehicle
FALCON 9
Launch site
Air Force Eastern Test Range (AFETR)
Object type
Payload
Rocket body
Debris
Shape & HBR
Box + 1 Pan, 10.1 m
Radar Cross Section
13.562 m², Large (>1 m²)

Expand to show TLE details & history
Last TLE update: 18 hours ago

TLE from 18 hours ago
0 STARLINK-1730
1 46563U 20070AH  25286.88649570  .00069280  00000-0  30917-2 0  9990
2 46563  53.0510  87.6207 0006017 143.7815 216.3589 15.20750600277773
Epoch: 2025-10-13T21:16Z
TLE epoch observation values (Epoch: 2025-10-13T21:16:33.228Z)
Latitude
0.00001°
Longitude
105.79942°
Altitude
507.795 km
Speed
7.61 km/s
True Right ascension
05h 50m 28s
True Declination
0° 00' 00"
Sunlit
Object was in daylight at epoch
Visualization orbit readout
Latitude
Unknown
Longitude
Unknown
Altitude
Unknown
Speed
Unknown
Apparent Right ascension
Unknown
Apparent Declination
Unknown
Sunlit
N/A
Visualization observer readout
Local Sidereal Time
10:12:06
Azimuth
Unknown
Elevation
Unknown
Doppler factor
Unknown
Orbital elements
Apogee altitude
507.989 km
Perigee altitude
499.707 km
Semi-major axis
6,881.985 km
Eccentricity
0.0006
Inclination
53.051°
RAAN
87.6207°
Arg. of periapsis
143.7815°
True anomaly
216.31805°
Mean anomaly
216.3589°
Eccentric anomaly
216.33847°
Mean motion
3.80165 °/min
Orbital period
94.7 mins
BSTAR
0.0030917
Loading maneuver chart data...
Computing Atmospheric mass density...
Loading historical data...
Loading historical data...
Loading historical data...
Loading historical data...
Loading historical data...
Loading historical data...
Loading historical data...

Documentation

Showing up to 5 results
|